Year,Month,Day,Hour,Minute,Value (Times are PST for temperature in C)
2009,09,21,00,00,11.50
2009,09,21,00,01,11.50
2009,09,21,00,02,11.50
2009,09,21,00,03,11.40
2009,09,21,00,04,11.40
2009,09,21,00,05,11.40
2009,09,21,00,06,11.40
2009,09,21,00,07,11.40
2009,09,21,00,08,11.40
2009,09,21,00,09,11.30
2009,09,21,00,10,11.30
2009,09,21,00,11,11.30
2009,09,21,00,12,11.30
2009,09,21,00,13,11.20
2009,09,21,00,14,11.20
2009,09,21,00,15,11.20
2009,09,21,00,16,11.20
2009,09,21,00,17,11.10
2009,09,21,00,18,11.10
2009,09,21,00,19,11.10
2009,09,21,00,20,11.00
2009,09,21,00,21,10.90
2009,09,21,00,22,10.90
2009,09,21,00,23,10.90
2009,09,21,00,24,10.90
2009,09,21,00,25,10.80
2009,09,21,00,26,10.80
2009,09,21,00,27,10.80
2009,09,21,00,28,10.80
2009,09,21,00,29,10.80
2009,09,21,00,30,10.80
2009,09,21,00,31,10.80
2009,09,21,00,32,10.80
2009,09,21,00,33,10.80
2009,09,21,00,34,10.80
2009,09,21,00,35,10.80
2009,09,21,00,36,10.80
2009,09,21,00,37,10.80
2009,09,21,00,38,10.80
2009,09,21,00,39,10.80
2009,09,21,00,40,10.80
2009,09,21,00,41,10.80
2009,09,21,00,42,10.70
2009,09,21,00,43,10.70
2009,09,21,00,44,10.70
2009,09,21,00,45,10.70
2009,09,21,00,46,10.70
2009,09,21,00,47,10.70
2009,09,21,00,48,10.70
2009,09,21,00,49,10.70
2009,09,21,00,50,10.60
2009,09,21,00,51,10.60
2009,09,21,00,52,10.60
2009,09,21,00,53,10.60
2009,09,21,00,54,10.60
2009,09,21,00,55,10.60
2009,09,21,00,56,10.60
2009,09,21,00,57,10.50
2009,09,21,00,58,10.50
2009,09,21,00,59,10.50
2009,09,21,01,00,10.50
2009,09,21,01,01,10.40
2009,09,21,01,02,10.40
2009,09,21,01,03,10.40
2009,09,21,01,04,10.40
2009,09,21,01,05,10.40
2009,09,21,01,06,10.40
2009,09,21,01,07,10.40
2009,09,21,01,08,10.30
2009,09,21,01,09,10.30
2009,09,21,01,10,10.30
2009,09,21,01,11,10.30
2009,09,21,01,12,10.30
2009,09,21,01,13,10.30
2009,09,21,01,14,10.30
2009,09,21,01,15,10.20
2009,09,21,01,16,10.20
2009,09,21,01,17,10.20
2009,09,21,01,18,10.20
2009,09,21,01,19,10.20
2009,09,21,01,20,10.20
2009,09,21,01,21,10.10
2009,09,21,01,22,10.10
2009,09,21,01,23,10.10
2009,09,21,01,24,10.10
2009,09,21,01,25,10.10
2009,09,21,01,26,10.10
2009,09,21,01,27,10.10
2009,09,21,01,28,10.10
2009,09,21,01,29,10.00
2009,09,21,01,30,10.00
2009,09,21,01,31,10.10
2009,09,21,01,32,10.10
2009,09,21,01,33,10.00
2009,09,21,01,34,10.10
2009,09,21,01,35,10.10
2009,09,21,01,36,10.10
2009,09,21,01,37,10.10
2009,09,21,01,38,10.10
2009,09,21,01,39,10.10
2009,09,21,01,40,10.10
2009,09,21,01,41,10.10
2009,09,21,01,42,10.10
2009,09,21,01,43,10.10
2009,09,21,01,44,10.00
2009,09,21,01,45,10.00
2009,09,21,01,46,10.00
2009,09,21,01,47,10.00
2009,09,21,01,48,10.00
2009,09,21,01,49,9.90
2009,09,21,01,50,9.90
2009,09,21,01,51,9.90
2009,09,21,01,52,9.90
2009,09,21,01,53,9.90
2009,09,21,01,54,9.90
2009,09,21,01,55,9.90
2009,09,21,01,56,9.90
2009,09,21,01,57,9.90
2009,09,21,01,58,9.80
2009,09,21,01,59,9.80
2009,09,21,02,00,9.80
2009,09,21,02,01,9.80
2009,09,21,02,02,9.80
2009,09,21,02,03,9.80
2009,09,21,02,04,9.80
2009,09,21,02,05,9.80
2009,09,21,02,06,9.80
2009,09,21,02,07,9.80
2009,09,21,02,08,9.80
2009,09,21,02,09,9.80
2009,09,21,02,10,9.80
2009,09,21,02,11,9.70
2009,09,21,02,12,9.70
2009,09,21,02,13,9.70
2009,09,21,02,14,9.70
2009,09,21,02,15,9.70
2009,09,21,02,16,9.70
2009,09,21,02,17,9.70
2009,09,21,02,18,9.70
2009,09,21,02,19,9.60
2009,09,21,02,20,9.60
2009,09,21,02,21,9.60
2009,09,21,02,22,9.60
2009,09,21,02,23,9.60
2009,09,21,02,24,9.50
2009,09,21,02,25,9.40
2009,09,21,02,26,9.40
2009,09,21,02,27,9.40
2009,09,21,02,28,9.30
2009,09,21,02,29,9.30
2009,09,21,02,30,9.30
2009,09,21,02,31,9.30
2009,09,21,02,32,9.30
2009,09,21,02,33,9.20
2009,09,21,02,34,9.20
2009,09,21,02,35,9.20
2009,09,21,02,36,9.20
2009,09,21,02,37,9.20
2009,09,21,02,38,9.20
2009,09,21,02,39,9.20
2009,09,21,02,40,9.20
2009,09,21,02,41,9.20
2009,09,21,02,42,9.20
2009,09,21,02,43,9.20
2009,09,21,02,44,9.20
2009,09,21,02,45,9.20
2009,09,21,02,46,9.20
2009,09,21,02,47,9.20
2009,09,21,02,48,9.20
2009,09,21,02,49,9.20
2009,09,21,02,50,9.20
2009,09,21,02,51,9.20
2009,09,21,02,52,9.20
2009,09,21,02,53,9.20
2009,09,21,02,54,9.20
2009,09,21,02,55,9.20
2009,09,21,02,56,9.20
2009,09,21,02,57,9.20
2009,09,21,02,58,9.20
2009,09,21,02,59,9.20
2009,09,21,03,00,9.10
2009,09,21,03,01,9.10
2009,09,21,03,02,9.10
2009,09,21,03,03,9.10
2009,09,21,03,04,9.10
2009,09,21,03,05,9.10
2009,09,21,03,06,9.10
2009,09,21,03,07,9.00
2009,09,21,03,08,9.00
2009,09,21,03,09,8.90
2009,09,21,03,10,8.90
2009,09,21,03,11,8.90
2009,09,21,03,12,8.90
2009,09,21,03,13,8.90
2009,09,21,03,14,8.80
2009,09,21,03,15,8.80
2009,09,21,03,16,8.80
2009,09,21,03,17,8.80
2009,09,21,03,18,8.70
2009,09,21,03,19,8.70
2009,09,21,03,20,8.70
2009,09,21,03,21,8.70
2009,09,21,03,22,8.60
2009,09,21,03,23,8.60
2009,09,21,03,24,8.60
2009,09,21,03,25,8.60
2009,09,21,03,26,8.50
2009,09,21,03,27,8.50
2009,09,21,03,28,8.40
2009,09,21,03,29,8.40
2009,09,21,03,30,8.40
2009,09,21,03,31,8.40
2009,09,21,03,32,8.40
2009,09,21,03,33,8.40
2009,09,21,03,34,8.40
2009,09,21,03,35,8.40
2009,09,21,03,36,8.40
2009,09,21,03,37,8.40
2009,09,21,03,38,8.40
2009,09,21,03,39,8.40
2009,09,21,03,40,8.40
2009,09,21,03,41,8.40
2009,09,21,03,42,8.40
2009,09,21,03,43,8.40
2009,09,21,03,44,8.40
2009,09,21,03,45,8.40
2009,09,21,03,46,8.40
2009,09,21,03,47,8.40
2009,09,21,03,48,8.40
2009,09,21,03,49,8.40
2009,09,21,03,50,8.40
2009,09,21,03,51,8.40
2009,09,21,03,52,8.40
2009,09,21,03,53,8.40
2009,09,21,03,54,8.40
2009,09,21,03,55,8.40
2009,09,21,03,56,8.40
2009,09,21,03,57,8.40
2009,09,21,03,58,8.40
2009,09,21,03,59,8.40
2009,09,21,04,00,8.40
2009,09,21,04,01,8.40
2009,09,21,04,02,8.40
2009,09,21,04,03,8.30
2009,09,21,04,04,8.30
2009,09,21,04,05,8.30
2009,09,21,04,06,8.30
2009,09,21,04,07,8.30
2009,09,21,04,08,8.30
2009,09,21,04,09,8.30
2009,09,21,04,10,8.30
2009,09,21,04,11,8.30
2009,09,21,04,12,8.30
2009,09,21,04,13,8.30
2009,09,21,04,14,8.30
2009,09,21,04,15,8.30
2009,09,21,04,16,8.20
2009,09,21,04,17,8.20
2009,09,21,04,18,8.20
2009,09,21,04,19,8.20
2009,09,21,04,20,8.20
2009,09,21,04,21,8.20
2009,09,21,04,22,8.20
2009,09,21,04,23,8.20
2009,09,21,04,24,8.20
2009,09,21,04,25,8.20
2009,09,21,04,26,8.20
2009,09,21,04,27,8.20
2009,09,21,04,28,8.10
2009,09,21,04,29,8.10
2009,09,21,04,30,8.10
2009,09,21,04,31,8.10
2009,09,21,04,32,8.10
2009,09,21,04,33,8.10
2009,09,21,04,34,8.10
2009,09,21,04,35,8.10
2009,09,21,04,36,8.10
2009,09,21,04,37,8.10
2009,09,21,04,38,8.10
2009,09,21,04,39,8.10
2009,09,21,04,40,8.10
2009,09,21,04,41,8.10
2009,09,21,04,42,8.00
2009,09,21,04,43,8.10
2009,09,21,04,44,8.00
2009,09,21,04,45,8.00
2009,09,21,04,46,8.00
2009,09,21,04,47,8.00
2009,09,21,04,48,8.00
2009,09,21,04,49,8.00
2009,09,21,04,50,8.00
2009,09,21,04,51,8.00
2009,09,21,04,52,8.00
2009,09,21,04,53,8.00
2009,09,21,04,54,8.00
2009,09,21,04,55,8.00
2009,09,21,04,56,8.00
2009,09,21,04,57,8.00
2009,09,21,04,58,7.90
2009,09,21,04,59,7.90
2009,09,21,05,00,7.90
2009,09,21,05,01,7.90
2009,09,21,05,02,7.90
2009,09,21,05,03,7.90
2009,09,21,05,04,7.90
2009,09,21,05,05,7.90
2009,09,21,05,06,7.90
2009,09,21,05,07,7.90
2009,09,21,05,08,7.90
2009,09,21,05,09,7.90
2009,09,21,05,10,8.00
2009,09,21,05,11,8.00
2009,09,21,05,12,7.90
2009,09,21,05,13,8.00
2009,09,21,05,14,8.00
2009,09,21,05,15,8.00
2009,09,21,05,16,8.00
2009,09,21,05,17,8.00
2009,09,21,05,18,8.00
2009,09,21,05,19,8.00
2009,09,21,05,20,8.00
2009,09,21,05,21,8.00
2009,09,21,05,22,8.00
2009,09,21,05,23,8.00
2009,09,21,05,24,8.00
2009,09,21,05,25,8.00
2009,09,21,05,26,8.00
2009,09,21,05,27,8.00
2009,09,21,05,28,8.00
2009,09,21,05,29,8.00
2009,09,21,05,30,8.00
2009,09,21,05,31,8.00
2009,09,21,05,32,8.10
2009,09,21,05,33,8.00
2009,09,21,05,34,8.10
2009,09,21,05,35,8.00
2009,09,21,05,36,8.00
2009,09,21,05,37,8.00
2009,09,21,05,38,8.00
2009,09,21,05,39,8.00
2009,09,21,05,40,8.00
2009,09,21,05,41,8.00
2009,09,21,05,42,7.90
2009,09,21,05,43,7.90
2009,09,21,05,44,7.90
2009,09,21,05,45,7.90
2009,09,21,05,46,7.90
2009,09,21,05,47,7.90
2009,09,21,05,48,7.90
2009,09,21,05,49,7.90
2009,09,21,05,50,7.90
2009,09,21,05,51,7.80
2009,09,21,05,52,7.80
2009,09,21,05,53,7.80
2009,09,21,05,54,7.80
2009,09,21,05,55,7.80
2009,09,21,05,56,7.80
2009,09,21,05,57,7.80
2009,09,21,05,58,7.70
2009,09,21,05,59,7.70
2009,09,21,06,00,7.70
2009,09,21,06,01,7.70
2009,09,21,06,02,7.70
2009,09,21,06,03,7.70
2009,09,21,06,04,7.70
2009,09,21,06,05,7.70
2009,09,21,06,06,7.70
2009,09,21,06,07,7.70
2009,09,21,06,08,7.70
2009,09,21,06,09,7.70
2009,09,21,06,10,7.70
2009,09,21,06,11,7.70
2009,09,21,06,12,7.70
2009,09,21,06,13,7.60
2009,09,21,06,14,7.60
2009,09,21,06,15,7.60
2009,09,21,06,16,7.60
2009,09,21,06,17,7.60
2009,09,21,06,18,7.60
2009,09,21,06,19,7.60
2009,09,21,06,20,7.50
2009,09,21,06,21,7.50
2009,09,21,06,22,7.50
2009,09,21,06,23,7.50
2009,09,21,06,24,7.50
2009,09,21,06,25,7.40
2009,09,21,06,26,7.40
2009,09,21,06,27,7.40
2009,09,21,06,28,7.40
2009,09,21,06,29,7.40
2009,09,21,06,30,7.40
2009,09,21,06,31,7.40
2009,09,21,06,32,7.40
2009,09,21,06,33,7.40
2009,09,21,06,34,7.40
2009,09,21,06,35,7.40
2009,09,21,06,36,7.30
2009,09,21,06,37,7.30
2009,09,21,06,38,7.40
2009,09,21,06,39,7.40
2009,09,21,06,40,7.30
2009,09,21,06,41,7.40
2009,09,21,06,42,7.40
2009,09,21,06,43,7.40
2009,09,21,06,44,7.40
2009,09,21,06,45,7.40
2009,09,21,06,46,7.40
2009,09,21,06,47,7.40
2009,09,21,06,48,7.40
2009,09,21,06,49,7.40
2009,09,21,06,50,7.40
2009,09,21,06,51,7.40
2009,09,21,06,52,7.40
2009,09,21,06,53,7.40
2009,09,21,06,54,7.40
2009,09,21,06,55,7.40
2009,09,21,06,56,7.40
2009,09,21,06,57,7.40
2009,09,21,06,58,7.40
2009,09,21,06,59,7.40
2009,09,21,07,00,7.40
2009,09,21,07,01,7.40
2009,09,21,07,02,7.40
2009,09,21,07,03,7.40
2009,09,21,07,04,7.40
2009,09,21,07,05,7.40
2009,09,21,07,06,7.40
2009,09,21,07,07,7.40
2009,09,21,07,08,7.40
2009,09,21,07,09,7.40
2009,09,21,07,10,7.50
2009,09,21,07,11,7.50
2009,09,21,07,12,7.50
2009,09,21,07,13,7.50
2009,09,21,07,14,7.50
2009,09,21,07,15,7.50
2009,09,21,07,16,7.50
2009,09,21,07,17,7.50
2009,09,21,07,18,7.50
2009,09,21,07,19,7.50
2009,09,21,07,20,7.50
2009,09,21,07,21,7.50
2009,09,21,07,22,7.50
2009,09,21,07,23,7.50
2009,09,21,07,24,7.50
2009,09,21,07,25,7.50
2009,09,21,07,26,7.50
2009,09,21,07,27,7.50
2009,09,21,07,28,7.60
2009,09,21,07,29,7.60
2009,09,21,07,30,7.60
2009,09,21,07,31,7.60
2009,09,21,07,32,7.60
2009,09,21,07,33,7.60
2009,09,21,07,34,7.60
2009,09,21,07,35,7.60
2009,09,21,07,36,7.60
2009,09,21,07,37,7.60
2009,09,21,07,38,7.60
2009,09,21,07,39,7.60
2009,09,21,07,40,7.60
2009,09,21,07,41,7.60
2009,09,21,07,42,7.60
2009,09,21,07,43,7.60
2009,09,21,07,44,7.60
2009,09,21,07,45,7.60
2009,09,21,07,46,7.60
2009,09,21,07,47,7.60
2009,09,21,07,48,7.60
2009,09,21,07,49,7.70
2009,09,21,07,50,7.70
2009,09,21,07,51,7.70
2009,09,21,07,52,7.80
2009,09,21,07,53,7.80
2009,09,21,07,54,7.90
2009,09,21,07,55,7.90
2009,09,21,07,56,8.00
2009,09,21,07,57,8.10
2009,09,21,07,58,8.10
2009,09,21,07,59,8.20
2009,09,21,08,00,8.20
2009,09,21,08,01,8.30
2009,09,21,08,02,8.30
2009,09,21,08,03,8.30
2009,09,21,08,04,8.40
2009,09,21,08,05,8.40
2009,09,21,08,06,8.50
2009,09,21,08,07,8.60
2009,09,21,08,08,8.60
2009,09,21,08,09,8.70
2009,09,21,08,10,8.70
2009,09,21,08,11,8.80
2009,09,21,08,12,8.80
2009,09,21,08,13,8.80
2009,09,21,08,14,8.90
2009,09,21,08,15,8.90
2009,09,21,08,16,9.10
2009,09,21,08,17,9.10
2009,09,21,08,18,9.20
2009,09,21,08,19,9.20
2009,09,21,08,20,9.30
2009,09,21,08,21,9.30
2009,09,21,08,22,9.30
2009,09,21,08,23,9.40
2009,09,21,08,24,9.40
2009,09,21,08,25,9.50
2009,09,21,08,26,9.60
2009,09,21,08,27,9.60
2009,09,21,08,28,9.60
2009,09,21,08,29,9.60
2009,09,21,08,30,9.70
2009,09,21,08,31,9.70
2009,09,21,08,32,9.70
2009,09,21,08,33,9.80
2009,09,21,08,34,9.80
2009,09,21,08,35,9.90
2009,09,21,08,36,9.90
2009,09,21,08,37,9.90
2009,09,21,08,38,9.90
2009,09,21,08,39,9.90
2009,09,21,08,40,9.90
2009,09,21,08,41,9.90
2009,09,21,08,42,10.00
2009,09,21,08,43,10.10
2009,09,21,08,44,10.10
2009,09,21,08,45,10.10
2009,09,21,08,46,10.10
2009,09,21,08,47,10.20
2009,09,21,08,48,10.20
2009,09,21,08,49,10.30
2009,09,21,08,50,10.30
2009,09,21,08,51,10.30
2009,09,21,08,52,10.40
2009,09,21,08,53,10.40
2009,09,21,08,54,10.50
2009,09,21,08,55,10.50
2009,09,21,08,56,10.60
2009,09,21,08,57,10.60
2009,09,21,08,58,10.70
2009,09,21,08,59,10.70
2009,09,21,09,00,10.70
2009,09,21,09,01,10.80
2009,09,21,09,02,10.80
2009,09,21,09,03,10.80
2009,09,21,09,04,10.80
2009,09,21,09,05,10.90
2009,09,21,09,06,10.90
2009,09,21,09,07,10.90
2009,09,21,09,08,11.00
2009,09,21,09,09,11.00
2009,09,21,09,10,11.10
2009,09,21,09,11,11.10
2009,09,21,09,12,11.20
2009,09,21,09,13,11.20
2009,09,21,09,14,11.20
2009,09,21,09,15,11.30
2009,09,21,09,16,11.30
2009,09,21,09,17,11.30
2009,09,21,09,18,11.30
2009,09,21,09,19,11.30
2009,09,21,09,20,11.40
2009,09,21,09,21,11.40
2009,09,21,09,22,11.40
2009,09,21,09,23,11.40
2009,09,21,09,24,11.50
2009,09,21,09,25,11.50
2009,09,21,09,26,11.50
2009,09,21,09,27,11.50
2009,09,21,09,28,11.50
2009,09,21,09,29,11.50
2009,09,21,09,30,11.50
2009,09,21,09,31,11.50
2009,09,21,09,32,11.60
2009,09,21,09,33,11.60
2009,09,21,09,34,11.60
2009,09,21,09,35,11.60
2009,09,21,09,36,11.60
2009,09,21,09,37,11.60
2009,09,21,09,38,11.60
2009,09,21,09,39,11.70
2009,09,21,09,40,11.70
2009,09,21,09,41,11.70
2009,09,21,09,42,11.70
2009,09,21,09,43,11.80
2009,09,21,09,44,11.80
2009,09,21,09,45,11.80
2009,09,21,09,46,11.90
2009,09,21,09,47,11.90
2009,09,21,09,48,11.90
2009,09,21,09,49,11.90
2009,09,21,09,50,11.90
2009,09,21,09,51,11.90
2009,09,21,09,52,11.90
2009,09,21,09,53,11.90
2009,09,21,09,54,11.90
2009,09,21,09,55,11.90
2009,09,21,09,56,11.90
2009,09,21,09,57,12.00
2009,09,21,09,58,12.10
2009,09,21,09,59,12.10
2009,09,21,10,00,12.20
2009,09,21,10,01,12.30
2009,09,21,10,02,12.30
2009,09,21,10,03,12.40
2009,09,21,10,04,12.40
2009,09,21,10,05,12.50
2009,09,21,10,06,12.60
2009,09,21,10,07,12.60
2009,09,21,10,08,12.60
2009,09,21,10,09,12.60
2009,09,21,10,10,12.60
2009,09,21,10,11,12.60
2009,09,21,10,12,12.60
2009,09,21,10,13,12.60
2009,09,21,10,14,12.60
2009,09,21,10,15,12.70
2009,09,21,10,16,12.70
2009,09,21,10,17,12.70
2009,09,21,10,18,12.70
2009,09,21,10,19,12.80
2009,09,21,10,20,12.80
2009,09,21,10,21,12.90
2009,09,21,10,22,12.90
2009,09,21,10,23,13.00
2009,09,21,10,24,13.10
2009,09,21,10,25,13.20
2009,09,21,10,26,13.20
2009,09,21,10,27,13.30
2009,09,21,10,28,13.30
2009,09,21,10,29,13.30
2009,09,21,10,30,13.30
2009,09,21,10,31,13.30
2009,09,21,10,32,13.30
2009,09,21,10,33,13.30
2009,09,21,10,34,13.30
2009,09,21,10,35,13.30
2009,09,21,10,36,13.30
2009,09,21,10,37,13.30
2009,09,21,10,38,13.30
2009,09,21,10,39,13.40
2009,09,21,10,40,13.40
2009,09,21,10,41,13.50
2009,09,21,10,42,13.60
2009,09,21,10,43,13.70
2009,09,21,10,44,13.80
2009,09,21,10,45,13.80
2009,09,21,10,46,13.90
2009,09,21,10,47,14.00
2009,09,21,10,48,14.10
2009,09,21,10,49,14.20
2009,09,21,10,50,14.30
2009,09,21,10,51,14.30
2009,09,21,10,52,14.30
2009,09,21,10,53,14.40
2009,09,21,10,54,14.50
2009,09,21,10,55,14.50
2009,09,21,10,56,14.60
2009,09,21,10,57,14.60
2009,09,21,10,58,14.60
2009,09,21,10,59,14.60
2009,09,21,11,00,14.60
2009,09,21,11,01,14.70
2009,09,21,11,02,14.80
2009,09,21,11,03,14.80
2009,09,21,11,04,14.80
2009,09,21,11,05,14.90
2009,09,21,11,06,15.00
2009,09,21,11,07,15.00
2009,09,21,11,08,15.00
2009,09,21,11,09,15.00
2009,09,21,11,10,15.00
2009,09,21,11,11,15.00
2009,09,21,11,12,15.00
2009,09,21,11,13,15.10
2009,09,21,11,14,15.20
2009,09,21,11,15,15.20
2009,09,21,11,16,15.30
2009,09,21,11,17,15.30
2009,09,21,11,18,15.30
2009,09,21,11,19,15.40
2009,09,21,11,20,15.40
2009,09,21,11,21,15.50
2009,09,21,11,22,15.60
2009,09,21,11,23,15.60
2009,09,21,11,24,15.70
2009,09,21,11,25,15.70
2009,09,21,11,26,15.80
2009,09,21,11,27,15.90
2009,09,21,11,28,16.10
2009,09,21,11,29,16.10
2009,09,21,11,30,16.20
2009,09,21,11,31,16.20
2009,09,21,11,32,16.20
2009,09,21,11,33,16.30
2009,09,21,11,34,16.30
2009,09,21,11,35,16.30
2009,09,21,11,36,16.30
2009,09,21,11,37,16.30
2009,09,21,11,38,16.30
2009,09,21,11,39,16.30
2009,09,21,11,40,16.30
2009,09,21,11,41,16.40
2009,09,21,11,42,16.40
2009,09,21,11,43,16.50
2009,09,21,11,44,16.60
2009,09,21,11,45,16.60
2009,09,21,11,46,16.70
2009,09,21,11,47,16.80
2009,09,21,11,48,16.90
2009,09,21,11,49,17.00
2009,09,21,11,50,17.10
2009,09,21,11,51,17.10
2009,09,21,11,52,17.10
2009,09,21,11,53,17.10
2009,09,21,11,54,17.20
2009,09,21,11,55,17.20
2009,09,21,11,56,17.20
2009,09,21,11,57,17.20
2009,09,21,11,58,17.20
2009,09,21,11,59,17.30
2009,09,21,12,00,17.40
2009,09,21,12,01,17.40
2009,09,21,12,02,17.60
2009,09,21,12,03,17.60
2009,09,21,12,04,17.60
2009,09,21,12,05,17.60
2009,09,21,12,06,17.60
2009,09,21,12,07,17.60
2009,09,21,12,08,17.70
2009,09,21,12,09,17.70
2009,09,21,12,10,17.70
2009,09,21,12,11,17.70
2009,09,21,12,12,17.80
2009,09,21,12,13,17.80
2009,09,21,12,14,17.90
2009,09,21,12,15,17.90
2009,09,21,12,16,17.90
2009,09,21,12,17,18.00
2009,09,21,12,18,18.00
2009,09,21,12,19,18.00
2009,09,21,12,20,18.00
2009,09,21,12,21,18.00
2009,09,21,12,22,18.10
2009,09,21,12,23,18.00
2009,09,21,12,24,18.00
2009,09,21,12,25,18.00
2009,09,21,12,26,18.00
2009,09,21,12,27,18.00
2009,09,21,12,28,17.90
2009,09,21,12,29,17.90
2009,09,21,12,30,17.90
2009,09,21,12,31,17.90
2009,09,21,12,32,17.90
2009,09,21,12,33,17.90
2009,09,21,12,34,17.90
2009,09,21,12,35,17.90
2009,09,21,12,36,18.00
2009,09,21,12,37,18.00
2009,09,21,12,38,18.10
2009,09,21,12,39,18.10
2009,09,21,12,40,18.10
2009,09,21,12,41,18.20
2009,09,21,12,42,18.20
2009,09,21,12,43,18.30
2009,09,21,12,44,18.30
2009,09,21,12,45,18.40
2009,09,21,12,46,18.40
2009,09,21,12,47,18.40
2009,09,21,12,48,18.40
2009,09,21,12,49,18.40
2009,09,21,12,50,18.50
2009,09,21,12,51,18.50
2009,09,21,12,52,18.60
2009,09,21,12,53,18.60
2009,09,21,12,54,18.60
2009,09,21,12,55,18.70
2009,09,21,12,56,18.70
2009,09,21,12,57,18.80
2009,09,21,12,58,18.80
2009,09,21,12,59,18.80
2009,09,21,13,00,18.80
2009,09,21,13,01,18.90
2009,09,21,13,02,18.90
2009,09,21,13,03,19.00
2009,09,21,13,04,19.10
2009,09,21,13,05,19.20
2009,09,21,13,06,19.30
2009,09,21,13,07,19.30
2009,09,21,13,08,19.40
2009,09,21,13,09,19.60
2009,09,21,13,10,19.70
2009,09,21,13,11,19.80
2009,09,21,13,12,19.80
2009,09,21,13,13,19.90
2009,09,21,13,14,19.90
2009,09,21,13,15,19.90
2009,09,21,13,16,20.00
2009,09,21,13,17,20.00
2009,09,21,13,18,20.10
2009,09,21,13,19,20.10
2009,09,21,13,20,20.20
2009,09,21,13,21,20.20
2009,09,21,13,22,20.20
2009,09,21,13,23,20.20
2009,09,21,13,24,20.10
2009,09,21,13,25,20.10
2009,09,21,13,26,20.10
2009,09,21,13,27,20.10
2009,09,21,13,28,20.10
2009,09,21,13,29,20.10
2009,09,21,13,30,20.10
2009,09,21,13,31,20.20
2009,09,21,13,32,20.20
2009,09,21,13,33,20.20
2009,09,21,13,34,20.30
2009,09,21,13,35,20.30
2009,09,21,13,36,20.40
2009,09,21,13,37,20.40
2009,09,21,13,38,20.40
2009,09,21,13,39,20.40
2009,09,21,13,40,20.40
2009,09,21,13,41,20.40
2009,09,21,13,42,20.40
2009,09,21,13,43,20.50
2009,09,21,13,44,20.50
2009,09,21,13,45,20.60
2009,09,21,13,46,20.60
2009,09,21,13,47,20.60
2009,09,21,13,48,20.60
2009,09,21,13,49,20.60
2009,09,21,13,50,20.60
2009,09,21,13,51,20.60
2009,09,21,13,52,20.60
2009,09,21,13,53,20.60
2009,09,21,13,54,20.60
2009,09,21,13,55,20.60
2009,09,21,13,56,20.60
2009,09,21,13,57,20.70
2009,09,21,13,58,20.70
2009,09,21,13,59,20.70
2009,09,21,14,00,20.70
2009,09,21,14,01,20.70
2009,09,21,14,02,20.80
2009,09,21,14,03,20.80
2009,09,21,14,04,20.90
2009,09,21,14,05,20.90
2009,09,21,14,06,21.10
2009,09,21,14,07,21.10
2009,09,21,14,08,21.10
2009,09,21,14,09,21.20
2009,09,21,14,10,21.20
2009,09,21,14,11,21.20
2009,09,21,14,12,21.10
2009,09,21,14,13,21.10
2009,09,21,14,14,21.00
2009,09,21,14,15,21.00
2009,09,21,14,16,20.90
2009,09,21,14,17,21.00
2009,09,21,14,18,21.00
2009,09,21,14,19,21.10
2009,09,21,14,20,21.10
2009,09,21,14,21,21.20
2009,09,21,14,22,21.20
2009,09,21,14,23,21.30
2009,09,21,14,24,21.40
2009,09,21,14,25,21.40
2009,09,21,14,26,21.60
2009,09,21,14,27,21.60
2009,09,21,14,28,21.70
2009,09,21,14,29,21.70
2009,09,21,14,30,21.70
2009,09,21,14,31,21.70
2009,09,21,14,32,21.70
2009,09,21,14,33,21.70
2009,09,21,14,34,21.80
2009,09,21,14,35,21.80
2009,09,21,14,36,21.70
2009,09,21,14,37,21.70
2009,09,21,14,38,21.80
2009,09,21,14,39,21.80
2009,09,21,14,40,21.80
2009,09,21,14,41,21.80
2009,09,21,14,42,21.90
2009,09,21,14,43,21.90
2009,09,21,14,44,21.90
2009,09,21,14,45,22.00
2009,09,21,14,46,22.10
2009,09,21,14,47,22.10
2009,09,21,14,48,22.10
2009,09,21,14,49,22.20
2009,09,21,14,50,22.20
2009,09,21,14,51,22.30
2009,09,21,14,52,22.40
2009,09,21,14,53,22.50
2009,09,21,14,54,22.60
2009,09,21,14,55,22.60
2009,09,21,14,56,22.70
2009,09,21,14,57,22.70
2009,09,21,14,58,22.80
2009,09,21,14,59,22.80
2009,09,21,15,00,22.80
2009,09,21,15,01,22.80
2009,09,21,15,02,22.80
2009,09,21,15,03,22.80
2009,09,21,15,04,22.80
2009,09,21,15,05,22.80
2009,09,21,15,06,22.80
2009,09,21,15,07,22.80
2009,09,21,15,08,22.80
2009,09,21,15,09,22.80
2009,09,21,15,10,22.70
2009,09,21,15,11,22.70
2009,09,21,15,12,22.70
2009,09,21,15,13,22.80
2009,09,21,15,14,22.80
2009,09,21,15,15,22.70
2009,09,21,15,16,22.70
2009,09,21,15,17,22.70
2009,09,21,15,18,22.70
2009,09,21,15,19,22.70
2009,09,21,15,20,22.60
2009,09,21,15,21,22.60
2009,09,21,15,22,22.60
2009,09,21,15,23,22.60
2009,09,21,15,24,22.60
2009,09,21,15,25,22.60
2009,09,21,15,26,22.70
2009,09,21,15,27,22.60
2009,09,21,15,28,22.60
2009,09,21,15,29,22.60
2009,09,21,15,30,22.60
2009,09,21,15,31,22.60
2009,09,21,15,32,22.60
2009,09,21,15,33,22.60
2009,09,21,15,34,22.60
2009,09,21,15,35,22.40
2009,09,21,15,36,22.40
2009,09,21,15,37,22.30
2009,09,21,15,38,22.30
2009,09,21,15,39,22.30
2009,09,21,15,40,22.30
2009,09,21,15,41,22.30
2009,09,21,15,42,22.30
2009,09,21,15,43,22.30
2009,09,21,15,44,22.40
2009,09,21,15,45,22.40
2009,09,21,15,46,22.40
2009,09,21,15,47,22.40
2009,09,21,15,48,22.50
2009,09,21,15,49,22.60
2009,09,21,15,50,22.60
2009,09,21,15,51,22.70
2009,09,21,15,52,22.70
2009,09,21,15,53,22.70
2009,09,21,15,54,22.80
2009,09,21,15,55,22.80
2009,09,21,15,56,22.80
2009,09,21,15,57,22.80
2009,09,21,15,58,22.90
2009,09,21,15,59,22.90
2009,09,21,16,00,22.90
2009,09,21,16,01,22.90
2009,09,21,16,02,22.80
2009,09,21,16,03,22.80
2009,09,21,16,04,22.80
2009,09,21,16,05,22.80
2009,09,21,16,06,22.80
2009,09,21,16,07,22.80
2009,09,21,16,08,22.80
2009,09,21,16,09,22.80
2009,09,21,16,10,22.70
2009,09,21,16,11,22.70
2009,09,21,16,12,22.70
2009,09,21,16,13,22.70
2009,09,21,16,14,22.70
2009,09,21,16,15,22.70
2009,09,21,16,16,22.70
2009,09,21,16,17,22.60
2009,09,21,16,18,22.60
2009,09,21,16,19,22.60
2009,09,21,16,20,22.50
2009,09,21,16,21,22.50
2009,09,21,16,22,22.40
2009,09,21,16,23,22.50
2009,09,21,16,24,22.40
2009,09,21,16,25,22.40
2009,09,21,16,26,22.40
2009,09,21,16,27,22.40
2009,09,21,16,28,22.30
2009,09,21,16,29,22.30
2009,09,21,16,30,22.30
2009,09,21,16,31,22.30
2009,09,21,16,32,22.30
2009,09,21,16,33,22.30
2009,09,21,16,34,22.30
2009,09,21,16,35,22.30
2009,09,21,16,36,22.30
2009,09,21,16,37,22.30
2009,09,21,16,38,22.20
2009,09,21,16,39,22.20
2009,09,21,16,40,22.20
2009,09,21,16,41,22.20
2009,09,21,16,42,22.20
2009,09,21,16,43,22.20
2009,09,21,16,44,22.20
2009,09,21,16,45,22.20
2009,09,21,16,46,22.20
2009,09,21,16,47,22.20
2009,09,21,16,48,22.20
2009,09,21,16,49,22.20
2009,09,21,16,50,22.20
2009,09,21,16,51,22.20
2009,09,21,16,52,22.20
2009,09,21,16,53,22.30
2009,09,21,16,54,22.30
2009,09,21,16,55,22.30
2009,09,21,16,56,22.30
2009,09,21,16,57,22.30
2009,09,21,16,58,22.30
2009,09,21,16,59,22.30
2009,09,21,17,00,22.30
2009,09,21,17,01,22.30
2009,09,21,17,02,22.30
2009,09,21,17,03,22.20
2009,09,21,17,04,22.20
2009,09,21,17,05,22.20
2009,09,21,17,06,22.20
2009,09,21,17,07,22.20
2009,09,21,17,08,22.10
2009,09,21,17,09,22.10
2009,09,21,17,10,21.90
2009,09,21,17,11,21.90
2009,09,21,17,12,21.90
2009,09,21,17,13,21.80
2009,09,21,17,14,21.80
2009,09,21,17,15,21.80
2009,09,21,17,16,21.70
2009,09,21,17,17,21.70
2009,09,21,17,18,21.60
2009,09,21,17,19,21.60
2009,09,21,17,20,21.50
2009,09,21,17,21,21.40
2009,09,21,17,22,21.40
2009,09,21,17,23,21.30
2009,09,21,17,24,21.30
2009,09,21,17,25,21.30
2009,09,21,17,26,21.30
2009,09,21,17,27,21.30
2009,09,21,17,28,21.20
2009,09,21,17,29,21.20
2009,09,21,17,30,21.20
2009,09,21,17,31,21.20
2009,09,21,17,32,21.20
2009,09,21,17,33,21.10
2009,09,21,17,34,21.10
2009,09,21,17,35,21.10
2009,09,21,17,36,21.20
2009,09,21,17,37,21.20